Station 46070 (LLNR 1198.1) - SOUTHWEST BERING SEA - 142NM NNE OF ATTU IS, AK Image indicating link to RSS feed of recent meteorological observations for station 46070


Conditions at 46070 as of
(12:10 pm HAST)
2210 GMT on 07/17/2024:
     

Click on the graph icon in the table below to see a time series plot of the last five days of that observation.

5-day plot - Wind Direction Wind Direction (WDIR):ESE ( 120 deg true )
5-day plot - Wind Speed Wind Speed (WSPD): 11.7 kts
5-day plot - Wind Gust Wind Gust (GST): 13.6 kts
5-day plot - Wave Height Wave Height (WVHT): 2.3 ft
5-day plot - Average Wave Period Average Period (APD): 4.8 sec
5-day plot - Mean Wave Direction Mean Wave Direction (MWD): SW ( 217 deg true )
5-day plot - Atmospheric Pressure Atmospheric Pressure (PRES):30.08 in
5-day plot - Air Temperature Air Temperature (ATMP): 49.1 °F
5-day plot - Water Temperature Water Temperature (WTMP): 49.5 °F
5-day plot - Dew Point Dew Point (DEWP): 45.5 °F
5-day plot - Wind Chill Wind Chill (CHILL): 43.9 °F
5-day plot - Wind Speed at 10 Meters Wind Speed at 10 meters (WSPD10M): 11.7 kts
5-day plot - Wind Speed at 20 Meters Wind Speed at 20 meters (WSPD20M): 11.7 kts
5-day plot -  Wind Speed, Wind Gust and Atmospheric Pressure Combined plot of Wind Speed, Gust, and Air Pressure
Supplemental Measurements
Highest 1-minute Wind Speed
Time (HAST)5-day plot - 1-Minute Wind Speed WSPD 5-day plot - 1-Minute Wind Direction WDIR
12:06 pm 11.7 kts-
Previous observations
TIME
(HAST)
5-day plot - Wind Direction
WDIR
 
5-day plot - Wind Speed
WSPD
kts
5-day plot - Wind Gust
GST
kts
5-day plot - Wave Height
WVHT
ft
5-day plot - Dominant Wave Period
DPD
sec
5-day plot - Average Wave Period
APD
sec
5-day plot - Mean Wave Direction
MWD
 
5-day plot - Atmospheric Pressure
PRES
in
5-day plot - Pressure Tendency
PTDY
in
5-day plot - Air Temperature
ATMP
°F
5-day plot - Water Temperature
WTMP
°F
5-day plot - Dew Point
DEWP
°F
5-day plot - Salinity
SAL
psu
5-day plot - Visibility
VIS
nmi
5-day plot - Tide (above MLLW)
TIDE
ft
2024-07-17 12:00 pmESE 9.7 11.7----30.08+0.02 49.1 49.5 45.5---
2024-07-17 11:50 amESE 9.7 11.7 2.0 84.8SSW30.08- 49.1 49.5 45.5---
2024-07-17 11:40 amESE 9.7 11.7----30.08- 49.1 49.5 45.5---
2024-07-17 11:30 amESE 9.7 11.7----30.07- 49.1 49.5 45.5---
2024-07-17 11:20 amESE 9.7 11.7 2.3 85.1 SW30.07- 49.1 49.5 45.5---
2024-07-17 11:10 am SE 9.7 11.7 2.3-5.1 SW30.08- 49.1 49.5 45.5---
2024-07-17 11:00 am SE 9.7 11.7----30.08+0.03 49.1 49.5 45.7---
2024-07-17 10:50 am SE 9.7 11.7 2.3 84.9SSW30.08- 49.1 49.5 45.7---
2024-07-17 10:40 am SE 9.7 11.7----30.07- 49.1 49.5 45.7---
2024-07-17 10:30 am SE 9.7 11.7----30.07- 49.1 49.5 45.9---
2024-07-17 10:20 am SE 9.7 11.7 2.3 85.3WSW30.07- 49.1 49.5 45.9---
2024-07-17 10:10 am SE 9.7 11.7 2.3-5.3WSW30.07- 49.1 49.3 45.9---
2024-07-17 10:00 am SE 9.7 11.7----30.06+0.02 49.1 49.3 45.7---
2024-07-17 09:50 am SE 9.7 11.7 2.3 85.2WSW30.06- 49.1 49.1 45.7---
2024-07-17 09:40 am SE 9.7 11.7----30.06- 49.1 48.9 45.9---
2024-07-17 09:30 am SE 9.7 11.7----30.06- 49.1 48.9 45.7---
2024-07-17 09:20 am SE 9.7 11.7 2.3 85.1 SW30.06- 49.3 48.9 45.9---
2024-07-17 09:10 am SE 9.7 11.7 2.3-5.1 SW30.06- 49.3 49.1 46.0---
2024-07-17 09:00 amESE 9.7 11.7----30.06+0.03 49.3 49.1 46.2---
2024-07-17 08:50 am SE 9.7 11.7 2.0 84.9 SW30.06- 49.3 49.1 46.2---
2024-07-17 08:40 amESE 9.7 9.7 2.0-4.9 SW30.06- 49.3 49.1 46.2---
2024-07-17 08:30 amESE 9.7 11.7----30.06- 49.3 49.1 46.0---
2024-07-17 08:20 amESE 9.7 11.7 2.0 75.2 SW30.05- 49.3 49.1 46.0---
2024-07-17 08:10 amESE 9.7 11.7 2.0-5.2 SW30.05- 49.3 49.1 46.2---
2024-07-17 08:00 amESE 9.7 11.7----30.05+0.02 49.1 49.1 46.0---
2024-07-17 07:50 amESE 9.7 11.7 2.3 85.3 SW30.05- 49.1 49.1 46.0---
2024-07-17 07:40 amESE 7.8 11.7 2.3-5.3 SW30.05- 49.1 49.1 46.0---
2024-07-17 07:30 amESE 9.7 11.7----30.04- 49.1 48.9 46.2---
2024-07-17 07:20 amESE 7.8 11.7 2.0 85.7 SW30.05- 49.1 48.9 46.2---
2024-07-17 07:10 amESE 9.7 11.7 2.0-5.7 SW30.04- 49.1 49.1 46.2---
2024-07-17 07:00 amESE 9.7 11.7----30.04+0.01 49.1 49.1 46.4---
2024-07-17 06:50 amESE 7.8 9.7 2.0 85.9 SW30.04- 49.3 49.3 46.8---
2024-07-17 06:40 amESE 7.8 9.7 2.0-5.9 SW30.04- 49.3 49.3 46.8---
2024-07-17 06:30 amESE 7.8 9.7----30.03- 49.1- 46.6---
2024-07-17 06:20 amESE 7.8 9.7 2.0 86.4 SW30.03- 49.3 49.3 46.9---
2024-07-17 06:10 am SE 7.8 9.7 2.0-6.4 SW30.03- 49.3 49.3 46.9---
2024-07-17 06:00 amESE 7.8 9.7----30.03+0.00 49.5 49.5 47.1---
2024-07-17 05:50 amESE 7.8 9.7 2.0 86.4 SW30.03- 49.5 49.3 47.1---
2024-07-17 05:40 amESE 7.8 9.7 2.0-6.4 SW30.03- 49.5 49.5 47.3---
2024-07-17 05:30 amESE 7.8 9.7----30.03- 49.5 49.5 47.5---
2024-07-17 05:20 amESE 7.8 9.7 2.3 87.1 SW30.03- 49.6 49.6 47.7---
2024-07-17 05:10 amESE 7.8 9.7 2.3-7.1 SW30.03- 49.6 49.6 47.3---
2024-07-17 05:00 am SE 7.8 7.8----30.03+0.00 49.6 49.5 47.3---
2024-07-17 04:50 amESE 7.8 7.8 2.0 77.0SSW30.03- 49.8 49.3 47.7---
2024-07-17 04:40 am SE 7.8 7.8----30.03- 50.0 49.5 48.0---
2024-07-17 04:30 am SE 5.8 7.8----30.03- 50.2 48.9 48.0---
2024-07-17 04:20 am SE 5.8 5.8 2.0 77.1SSW30.03- 50.4 49.3 48.0---
2024-07-17 04:10 amSSE 3.9 5.8----30.03- 50.4 49.3 48.0---
2024-07-17 04:00 amSSE 5.8 5.8----30.03+0.00 50.5 49.3 48.2---
2024-07-17 03:50 amSSE 5.8 5.8 2.0 87.0SSW30.03- 50.5 49.3 48.0---
2024-07-17 03:40 amSSE 5.8 5.8----30.03- 50.7 49.5 47.8---
2024-07-17 03:30 amSSE 5.8 5.8----30.03- 50.7 49.6 47.7---
2024-07-17 03:20 amSSE 3.9 5.8 2.0 86.9 SW30.03- 50.9 49.6 47.3---
2024-07-17 03:10 amSSE 1.9 3.9 2.0-6.9 SW30.03- 50.9 49.6 47.5---
2024-07-17 03:00 amSSE 3.9 3.9----30.03+0.01 50.9 49.8 47.3---
2024-07-17 02:50 am SE 3.9 5.8 2.3 87.0SSW30.03- 50.9 49.6 46.8---
2024-07-17 02:40 am SE 3.9 5.8----30.03- 50.9 49.6 47.1---
2024-07-17 02:30 am SE 5.8 7.8----30.03- 50.9 49.6 46.6---
2024-07-17 02:20 am SE 3.9 7.8 2.0 87.1 SW30.03- 50.7 49.8 46.8---
2024-07-17 02:10 am SE 3.9 5.8 2.0-7.1 SW30.03- 50.7 49.8 47.7---
2024-07-17 02:00 amESE 3.9 3.9----30.03+0.02 50.7 49.8 47.8---
2024-07-17 01:50 am SE 3.9 3.9 2.0 86.8 SW30.03- 50.7 49.8 48.0---
2024-07-17 01:40 am SE 3.9 5.8----30.03- 50.7 49.8 48.2---
2024-07-17 01:30 am SE 3.9 5.8----30.03- 50.7 49.8 48.0---
2024-07-17 01:20 am SE 3.9 3.9 2.3 86.6 SW30.03- 50.5 49.8 48.2---
2024-07-17 01:10 am SE 3.9 3.9 2.3-6.6 SW30.03- 50.7 49.6 48.4---
2024-07-17 01:00 amSSE 3.9 5.8----30.03+0.02 50.7 49.6 48.4---
2024-07-17 12:50 am SE 3.9 5.8 2.3 86.6 SW30.03- 50.5 49.6 48.0---
2024-07-17 12:40 am SE 3.9 5.8----30.02- 50.5 49.6 48.2---
2024-07-17 12:30 am SE 3.9 5.8----30.02- 50.5 49.6 48.2---
2024-07-17 12:20 am SE 3.9 5.8 2.3 86.7SSW30.02- 50.5 49.6 48.2---
2024-07-17 12:10 am SE 3.9 5.8 2.3-6.7SSW30.02- 50.5 49.6 48.4---
2024-07-17 12:00 am SE 5.8 5.8----30.02+0.03 50.7 49.6 48.4---
2024-07-16 11:50 pm SE 5.8 5.8 2.3 86.5SSW30.02- 50.7 49.6 48.4---
2024-07-16 11:40 pm SE 3.9 5.8----30.01- 50.7 49.6 48.4---
2024-07-16 11:30 pm SE 3.9 5.8----30.02- 50.5 49.6 48.2---
2024-07-16 11:20 pm SE 3.9 5.8 2.3 96.6SSW30.01- 50.5 49.6 48.2---
2024-07-16 11:10 pmESE 3.9 5.8 2.3-6.6SSW30.01- 50.5 49.6 48.2---
2024-07-16 11:00 pm SE 3.9 5.8----30.01+0.03 50.5 49.6 48.2---
2024-07-16 10:50 pm SE 3.9 5.8 2.3 86.4 SW30.01- 50.7 49.5 48.4---
2024-07-16 10:40 pm SE 3.9 5.8----30.01- 50.5 49.6 48.4---
2024-07-16 10:30 pm SE 1.9 3.9----30.01- 50.7 49.3 48.7---
2024-07-16 10:20 pm SE 3.9 3.9 2.3 86.4 SW30.01- 50.7 49.8 48.7---
2024-07-16 10:10 pm SE 3.9 5.8 2.3-6.4 SW30.00- 50.7 49.8 48.7---
2024-07-16 10:00 pm SE 3.9 5.8----30.00+0.03 50.5 49.8 48.6---
2024-07-16 09:50 pm SE 3.9 5.8 2.0 86.2 SW30.00- 50.5 49.8 48.6---
2024-07-16 09:40 pm SE 3.9 5.8----30.00- 50.5 49.8 48.6---
2024-07-16 09:30 pm SE 3.9 5.8----29.99- 50.7 49.8 48.7---
2024-07-16 09:20 pm SE 3.9 3.9 2.3 86.5 SW29.99- 50.7 49.5 48.7---
2024-07-16 09:10 pm SE 3.9 3.9 2.3-6.5 SW29.99- 50.5 49.8 48.6---
2024-07-16 09:00 pmSSE 1.9 3.9----29.99+0.01 50.7 49.8 48.7---
2024-07-16 08:50 pm SE 3.9 3.9 2.3 86.5 SW29.99- 50.5 49.8 48.6---
2024-07-16 08:40 pm SE 3.9 3.9----29.98- 50.5 49.8 48.4---
2024-07-16 08:30 pm SE 3.9 3.9----29.98- 50.5 50.0 48.2---
2024-07-16 08:20 pm SE 3.9 3.9 2.3 86.4 SW29.98- 50.4 50.0 48.0---
2024-07-16 08:10 pm SE 3.9 3.9 2.3-6.4 SW29.98- 50.4 50.0 48.0---
2024-07-16 08:00 pm SE 3.9 5.8----29.98+0.01 50.2 50.0 47.8---
2024-07-16 07:50 pmSSE 5.8 5.8 2.3 86.5 SW29.98- 50.2 50.0 47.8---
2024-07-16 07:40 pmSSE 3.9 5.8----29.98- 50.0 50.2 47.7---
2024-07-16 07:30 pmSSE 3.9 5.8----29.98- 49.8 50.2 47.8---
2024-07-16 07:20 pm S 3.9 5.8 2.6 86.7 SW29.98- 49.8 50.4 47.8---
2024-07-16 07:10 pm S 5.8 5.8----29.98- 49.6 50.4 47.7---
2024-07-16 07:00 pm S 5.8 5.8----29.98+0.01 49.6 50.4 47.7---
2024-07-16 06:50 pm S 5.8 5.8 2.3 86.6 SW29.98- 49.8 50.2 47.8---
2024-07-16 06:40 pm S 3.9 5.8 2.3-6.6 SW29.98- 50.0 50.2 48.0---
2024-07-16 06:30 pmSSW 3.9 5.8----29.98- 50.2 50.2 48.0---
2024-07-16 06:20 pmSSW 5.8 5.8 2.3 86.5 SW29.98- 50.2 50.0 48.0---
2024-07-16 06:10 pmSSW 3.9 5.8 2.3-6.5 SW29.98- 50.5 50.2 48.6---
2024-07-16 06:00 pmSSW 3.9 5.8----29.98+0.02 50.7 50.2 48.7---
2024-07-16 05:50 pm S 3.9 5.8 2.6 86.6 SW29.97- 50.7 50.2 48.6---
2024-07-16 05:40 pm S 3.9 5.8----29.97- 50.7 50.2 48.6---
2024-07-16 05:30 pm S 3.9 3.9----29.97- 50.7 50.2 48.6---
2024-07-16 05:20 pm S 3.9 5.8 2.3 86.3SSW29.97- 50.5 50.2 48.6---
2024-07-16 05:10 pm S 3.9 5.8 2.3-6.3SSW29.97- 50.5 50.0 48.4---
2024-07-16 05:00 pm S 3.9 5.8----29.97+0.01 50.5 50.2 48.4---
2024-07-16 04:50 pm S 3.9 5.8 2.6 86.6 SW29.97- 50.5 50.2 48.2---
2024-07-16 04:40 pm S 3.9 5.8 2.6-6.6 SW29.97- 50.4 50.0 48.2---
2024-07-16 04:30 pm S 5.8 5.8----29.97- 50.4 49.8 48.4---
2024-07-16 04:20 pm S 5.8 5.8 2.6 86.6 SW29.96- 50.5 50.0 48.6---
2024-07-16 04:10 pm S 5.8 5.8 2.6-6.6 SW29.96- 50.4 50.0 48.4---
2024-07-16 04:00 pm S 5.8 5.8----29.96+0.01 50.4 50.0 48.4---
2024-07-16 03:50 pm S 5.8 5.8 2.3 86.3SSW29.96- 50.2 50.0 48.2---
2024-07-16 03:40 pm S 5.8 5.8----29.96- 50.2 50.0 48.2---
2024-07-16 03:30 pm S 5.8 5.8----29.96- 50.0 49.8 48.0---
2024-07-16 03:20 pm S 5.8 5.8 2.6 86.5SSW29.96- 50.0 50.0 48.0---
2024-07-16 03:10 pm S 5.8 7.8 2.6-6.5SSW29.96- 50.2 50.0 48.0---
2024-07-16 03:00 pm S 5.8 5.8----29.96+0.01 50.2 49.8 47.8---
2024-07-16 02:50 pm S 5.8 7.8 2.3 86.5 SW29.96- 50.2 49.6 47.5---
2024-07-16 02:40 pm S 5.8 7.8----29.96- 50.4 50.0 47.5---
2024-07-16 02:30 pm S 5.8 5.8----29.96- 50.2 50.0 47.3---
2024-07-16 02:20 pm S 5.8 7.8 2.6 86.4SSW29.96- 50.2 49.6 47.3---
2024-07-16 02:10 pm S 5.8 7.8----29.96- 50.2 49.6 47.3---
2024-07-16 02:00 pm S 5.8 7.8----29.96+0.01 50.2 49.8 47.3---
2024-07-16 01:50 pm S 5.8 7.8 2.3 96.4SSW29.96- 50.2 49.6 47.3---
2024-07-16 01:40 pm S 5.8 7.8----29.95- 50.0 49.8 47.1---
2024-07-16 01:10 pm S 5.8 5.8 2.6-6.4 W29.95- 49.8 49.5 47.3---
2024-07-16 01:00 pm S 3.9 5.8----29.95+0.01 49.6 49.5 47.1---
2024-07-16 12:50 pm S 3.9 5.8 2.3 76.2WSW29.95- 49.6 49.5 47.3---
2024-07-16 12:40 pm S 5.8 5.8----29.95- 49.6 49.5 47.3---
2024-07-16 12:30 pm S 5.8 5.8----29.95- 49.6 49.3 47.5---
2024-07-16 12:20 pm S 5.8 5.8 2.3 76.0 SW29.95- 49.5 49.3 47.5---
2024-07-16 12:10 pm S 5.8 5.8 2.3-6.0 SW29.95- 49.5 49.3 47.5---
2024-07-16 12:00 pm S 5.8 5.8----29.94+0.01 49.3 49.3 47.3---
2024-07-16 11:50 am S 5.8 5.8 2.3 86.1SSW29.94- 49.3 49.1 47.3---

Detailed Wave Summary
for 46070 as of (12:10 pm HAST)
2210 GMT on 07/17/2024:

These wave data are displayed in rounded times.

     

Click on the graph icon in the table below to see a time series plot of the last five days of that observation.

5-day plot - Significant Wave Height Significant Wave Height (WVHT): 2.3 ft
5-day plot - Swell Height Swell Height (SwH): 2.0 ft
5-day plot - Swell Period Swell Period (SwP): 7.7 sec
5-day plot - Swell Direction Swell Direction (SwD): SW
5-day plot - Wind Wave Height Wind Wave Height (WWH): 1.3 ft
5-day plot - Wind Wave Period Wind Wave Period (WWP): 3.0 sec
5-day plot - Wind Wave Direction Wind Wave Direction (WWD):ESE
5-day plot - Average Wave Period Average Wave Period (APD): 4.8 sec
Previous observations
TIME
(HAST)
5-day plot - Wave Height
WVHT
ft
5-day plot - Swell Height
SwH
ft
5-day plot - Swell Period
SwP
sec
5-day plot - Swell Direction
SwD
 
5-day plot - Wind Wave Height
WWH
ft
5-day plot - Wind Wave Period
WWP
sec
5-day plot - Wind Wave Direction
WWD
 
5-day plot - Wave Steepness
STEEPNESS
 
5-day plot - Average Wave Period
APD
sec
2024-07-17 11:40 am 2.0 1.6 7.7SSW 1.0 3.2 E N/A 4.8
2024-07-17 11:10 am 2.3 2.0 7.7 SW 1.0 3.0 ESE N/A 5.1
2024-07-17 10:40 am 2.3 2.0 7.7SSW 1.3 3.1 E N/A 4.9
2024-07-17 10:10 am 2.3 2.0 7.7WSW 1.0 3.1 E N/A 5.3
2024-07-17 09:40 am 2.3 2.0 7.7WSW 1.0 3.1 E N/A 5.2
2024-07-17 09:10 am 2.3 2.0 7.7 SW 1.0 2.9 E N/A 5.1
2024-07-17 08:40 am 2.0 2.0 7.7 SW 1.0 2.9 E N/A 4.9
2024-07-17 08:10 am 2.0 2.0 7.1 SW 1.0 4.2 SW N/A 5.2
2024-07-17 07:40 am 2.3 2.0 7.7 SW 1.0 2.7 ESE N/A 5.3
2024-07-17 07:10 am 2.0 2.0 7.7 SW 0.7 4.3 WSW N/A 5.7
2024-07-17 06:40 am 2.0 2.0 7.7 SW 0.7 2.5 ESE N/A 5.9
2024-07-17 06:10 am 2.0 2.0 7.7 SW 0.3 4.0 WSW N/A 6.4
2024-07-17 05:40 am 2.0 2.0 8.3 SW 0.3 3.7 SW N/A 6.4
2024-07-17 05:10 am 2.3 2.0 8.3 SW 0.3 3.7 SW N/A 7.1
2024-07-17 04:40 am 2.0 2.0 7.1SSW 0.3 4.0 WSW N/A 7.0
2024-07-17 04:10 am 2.0 2.0 7.1SSW 0.3 3.4 S N/A 7.1
2024-07-17 03:40 am 2.0 2.0 8.3SSW 0.3 3.3 SW N/A 7.0
2024-07-17 03:10 am 2.0 2.0 7.7 SW 0.3 3.4 WSW N/A 6.9
2024-07-17 02:40 am 2.3 2.0 7.7SSW 0.3 3.8 WSW N/A 7.0
2024-07-17 02:10 am 2.0 2.0 8.3 SW 0.3 3.6 WSW N/A 7.1
2024-07-17 01:40 am 2.0 2.0 8.3 SW 0.3 3.4 SW N/A 6.8
2024-07-17 01:10 am 2.3 2.0 8.3 SW 0.3 3.0 WSW N/A 6.6
2024-07-17 12:40 am 2.3 2.3 7.7 SW 0.7 4.0 W N/A 6.6
2024-07-17 12:10 am 2.3 2.3 7.7SSW 0.3 3.4 WSW N/A 6.7
2024-07-16 11:40 pm 2.3 2.3 7.7SSW 0.7 3.8 W N/A 6.5
2024-07-16 11:10 pm 2.3 2.3 9.1SSW 0.7 3.7 W N/A 6.6
2024-07-16 10:40 pm 2.3 2.0 8.3 SW 0.7 3.8 WSW N/A 6.4
2024-07-16 10:10 pm 2.3 2.0 7.7 SW 0.7 3.7 WSW N/A 6.4
2024-07-16 09:40 pm 2.0 2.0 8.3 SW 0.7 3.3 WSW N/A 6.2
2024-07-16 09:10 pm 2.3 2.3 7.7 SW 0.7 3.6 WSW N/A 6.5
2024-07-16 08:40 pm 2.3 2.3 8.3 SW 0.7 3.6 W N/A 6.5
2024-07-16 08:10 pm 2.3 2.3 8.3 SW 0.7 4.0 WSW N/A 6.4
2024-07-16 07:40 pm 2.3 2.0 8.3 SW 0.7 3.7 WSW N/A 6.5
2024-07-16 07:10 pm 2.6 2.3 8.3 SW 0.7 4.0 WSW N/A 6.7
2024-07-16 06:40 pm 2.3 2.3 7.7 SW 0.3 3.7 SW N/A 6.6
2024-07-16 06:10 pm 2.3 2.3 8.3 SW 0.7 3.7 W N/A 6.5
2024-07-16 05:40 pm 2.6 2.3 8.3 SW 0.7 4.0 WNW N/A 6.6
2024-07-16 05:10 pm 2.3 2.3 8.3SSW 0.7 3.7 WSW N/A 6.3
2024-07-16 04:40 pm 2.6 2.6 8.3 SW 0.7 4.0 WSW N/A 6.6
2024-07-16 04:10 pm 2.6 2.6 8.3 SW 0.7 4.0 W SWELL 6.6
2024-07-16 03:40 pm 2.3 2.3 8.3SSW 0.7 3.6 W N/A 6.3
2024-07-16 03:10 pm 2.6 2.3 8.3SSW 0.7 4.0 WSW N/A 6.5
2024-07-16 02:40 pm 2.3 2.3 8.3 SW 0.7 4.0 W N/A 6.5
2024-07-16 02:10 pm 2.6 2.6 8.3SSW 0.7 3.6 WSW N/A 6.4
2024-07-16 01:40 pm 2.3 2.3 9.1SSW 0.7 3.8 W N/A 6.4
2024-07-16 01:10 pm 2.6 2.3 6.7 W 0.7 3.4 WNW N/A 6.4
2024-07-16 12:40 pm 2.3 2.3 6.7WSW 0.7 3.8 W N/A 6.2
2024-07-16 12:10 pm 2.3 2.3 7.1 SW 0.7 3.7 WSW N/A 6.0

Plot of wave energy versus frequency (and period)